Location: Lafig�re
(44.4503°N, 4.0357°E)
Time: 08:06:26
(UTC+00:00)

deb Explorer IX - Pass Details

Date: 22 January 2021
Orbit: 537 x 1103 km, 38.8° (Epoch: 23 February)

Event Time Altitude Azimuth Distance (km) Brightness Sun altitude
Rises 18:52:56 0° 243° (WSW) 3,573 ? -23.6°
Reaches altitude 10° 18:55:51 10° 237° (WSW) 2,536 ? -24.1°
Maximum altitude 19:01:23 40° 169° (S) 1,144 ? -25.1°
Enters shadow 19:01:42 40° 160° (SSE) 1,144 ? -25.2°
